{"data":{"norad_id":66416,"intl_designator":"2025-258E","name":"HULIANWANG DIGUI-100","alt_names":[],"object_type":"PAYLOAD","status":"ACTIVE","operator":null,"country":"PRC","launch_date":"2025-11-10","launch_site_code":"WSC","launch_vehicle":null,"mission":null,"orbit_class":"UNKNOWN","rcs_meters":null,"size_class":null,"mass_kg":null,"dimensions":null,"purposes":[],"wikipedia_slug":null,"has_3d_model":false,"image_url":null,"decayed_at":null,"tle_current":{"epoch":"2026-05-24T21:59:46.234176Z","epoch_age_seconds":76195,"freshness":"FRESH","line1":"1 66416U 25258E   26144.91650734 -.00000081  00000+0  93071-4 0  9990","line2":"2 66416  50.0068  19.2553 0000940  62.5987 297.4980 13.29319490 26647","mean_motion":13.2931949,"eccentricity":9.4e-5,"inclination_deg":50.0068,"raan_deg":19.2553,"arg_perigee_deg":62.5987,"mean_anomaly_deg":297.498,"bstar":9.3071e-5,"rev_number":2664,"period_min":108.32610300478,"perigee_km":1148.6235656393,"apogee_km":1150.038729651,"semimajor_km":7527.4681476451,"source":"CELESTRAK","updated_at":"2026-05-25T13:38:06.206381Z"}}}